Temp
66 68 70 69 69 69 69 69 69 70 70 70 70 69 69 70 70 70 69 69 69 68 68 67 67 67 67 67 66 66 62 63
67 66 67 65 66 68 68 68 68 69 69 69 68 68 68 69 69 69 69 69 69 68 68 67 67 67 66 66 65 66 62 63
70 68 68 66 65 68 68 69 68 68 68 68 67 66 67 68 67 68 69 69 68 68 68 67 66 66 66 66 66 61 63 64
72 70 69 68 76 66 66 68 67 66 67 66 66 66 66 70 67 68 68 68 68 68 67 67 66 62 62 65 61 62 63 64
72 72 72 71 71 65 65 66 65 65 67 68 68 68 67 65 62 63 62 65 63 65 63 62 63 61 63 61 62 63 61 63
72 71 72 70 68 68 67 67 67 66 70 69 66 64 64 63 63 63 61 62 61 61 60 62 61 64 65 64 63 63 62 61
71 71 70 70 69 66 68 67 67 68 67 68 66 64 63 63 63 63 63 63 62 61 62 63 63 63 64 64 63 63 63 62
72 71 70 70 67 68 67 67 67 67 66 66 67 64 63 63 62 63 62 62 61 61 61 61 61 62 63 63 63 62 63 62
73 72 71 70 69 69 67 67 68 66 65 66 66 66 63 63 61 61 61 61 61 61 61 60 59 61 61 61 62 62 61 62
74 79 68 66 67 68 68 67 65 65 64 65 66 66 66 62 61 60 61 61 61 59 59 59 58 57 57 59 60 60 61 61
68 72 68 66 64 64 66 67 67 65 64 63 64 65 64 61 60 60 60 59 59 58 58 56 56 56 59 59 57 57 58 64
65 68 64 64 63 63 63 63 63 63 62 63 65 64 64 60 59 59 59 57 56 55 54 55 55 55 62 62 58 56 57 56
66 66 61 60 60 60 59 60 61 61 62 65 65 63 62 60 58 58 57 56 54 55 53 52 54 53 53 56 54 55 55 56
63 64 63 63 61 60 60 59 61 61 61 62 62 61 61 61 56 55 55 53 53 52 51 49 50 51 48 50 47 51 53 55
63 63 63 61 61 60 60 59 59 58 58 57 58 58 58 56 55 53 52 52 50 49 50 48 46 48 48 45 43 41 46 51
62 63 63 63 62 59 57 54 54 55 55 55 56 56 56 56 54 52 51 50 49 48 49 46 45 42 45 49 44 45 41 41
61 62 62 62 60 59 56 55 55 55 55 54 54 54 54 54 54 51 48 47 46 45 45 45 48 47 45 44 44 41 39 35
60 61 61 60 59 57 56 54 55 53 53 51 51 51 51 50 50 47 46 45 44 43 43 45 42 43 43 41 40 38 39 38
60 59 59 59 58 56 54 54 53 51 50 49 48 48 46 45 45 44 43 43 43 43 44 42 41 40 41 41 39 37 40 39
58 59 60 59 56 55 54 53 52 51 51 50 48 47 44 44 44 43 43 43 42 41 41 41 40 40 38 42 41 41 41 39
MSLP
1019.23 1019.51 1019.57 1019.59 1019.72 1019.90 1019.99 1020.08 1020.24 1020.50 1020.60 1020.77 1020.93 1020.95 1021.20 1021.26 1021.41 1021.30 1021.44 1021.44 1021.52 1021.42 1021.42 1021.25 1021.11 1021.00 1020.86 1020.63 1020.37 1020.16 1020.24 1020.47
1019.08 1019.29 1019.52 1019.64 1019.61 1019.84 1020.02 1020.14 1020.25 1020.36 1020.53 1020.77 1020.97 1021.01 1021.15 1021.06 1021.16 1021.31 1021.31 1021.24 1021.36 1021.33 1021.31 1021.07 1021.05 1021.02 1020.91 1020.69 1020.49 1020.26 1020.04 1020.13
1018.87 1019.27 1019.49 1019.54 1019.57 1019.49 1019.79 1019.98 1020.24 1020.26 1020.57 1020.58 1020.80 1020.88 1021.07 1021.00 1021.00 1021.20 1021.17 1021.19 1021.29 1021.15 1021.00 1020.98 1020.92 1020.98 1020.83 1020.63 1020.53 1020.56 1020.28 1019.91
1018.47 1018.78 1019.06 1019.29 1019.23 1019.44 1019.61 1019.89 1020.18 1020.05 1020.48 1020.56 1020.50 1020.62 1020.74 1020.65 1021.06 1021.06 1020.99 1021.09 1021.21 1021.05 1020.86 1020.75 1020.81 1020.68 1020.48 1020.28 1020.35 1020.26 1020.11 1019.94
1018.18 1018.17 1018.19 1018.67 1018.92 1019.53 1019.50 1019.94 1020.12 1019.99 1020.17 1020.19 1020.12 1020.30 1020.44 1020.74 1021.03 1021.12 1021.07 1021.13 1021.10 1020.92 1020.82 1020.77 1020.63 1020.47 1020.23 1020.13 1020.11 1019.99 1019.87 1019.68
1017.91 1017.89 1018.30 1018.61 1018.96 1019.35 1019.38 1019.83 1019.77 1019.86 1019.79 1019.67 1019.94 1020.42 1020.56 1020.69 1020.85 1020.90 1021.01 1020.90 1020.91 1020.76 1020.90 1020.69 1020.58 1020.37 1019.91 1019.83 1019.79 1019.69 1019.64 1019.65
1017.47 1017.54 1018.23 1018.56 1018.75 1018.99 1018.80 1019.45 1019.35 1019.33 1019.65 1019.71 1019.73 1020.16 1020.47 1020.46 1020.57 1020.57 1020.56 1020.53 1020.56 1020.49 1020.45 1020.28 1020.13 1019.98 1019.83 1019.75 1019.65 1019.40 1019.30 1019.23
1017.17 1017.35 1017.71 1017.99 1018.63 1018.75 1018.90 1019.08 1019.00 1019.17 1019.53 1019.53 1019.66 1019.99 1020.31 1020.38 1020.51 1020.48 1020.45 1020.46 1020.44 1020.39 1020.36 1020.24 1020.00 1019.79 1019.58 1019.29 1019.12 1018.99 1018.81 1018.74
1016.68 1016.84 1016.85 1017.31 1017.81 1018.15 1018.63 1018.87 1018.93 1019.34 1019.43 1019.33 1019.45 1019.74 1020.10 1020.20 1020.38 1020.51 1020.46 1020.32 1020.17 1020.08 1019.92 1019.86 1019.85 1019.48 1019.38 1018.97 1018.79 1018.53 1018.44 1018.23
1016.36 1016.96 1017.56 1018.28 1018.30 1018.62 1018.10 1018.76 1019.09 1019.15 1019.33 1019.22 1019.27 1019.60 1019.80 1020.21 1020.49 1020.43 1020.23 1020.10 1019.96 1019.75 1019.89 1019.87 1019.69 1019.41 1019.09 1018.71 1018.42 1018.14 1017.90 1017.71
1017.38 1017.46 1018.13 1019.07 1019.98 1019.22 1018.35 1018.57 1018.76 1018.95 1019.25 1019.53 1019.61 1019.73 1019.93 1020.10 1020.19 1020.28 1020.34 1020.46 1020.36 1020.37 1020.10 1020.09 1020.00 1019.62 1019.17 1018.61 1018.26 1018.07 1017.82 1017.45
1018.14 1018.44 1018.87 1019.18 1018.88 1018.73 1019.04 1019.39 1019.50 1019.46 1019.76 1019.67 1019.55 1019.71 1019.79 1020.07 1020.19 1020.29 1020.40 1020.54 1020.60 1020.46 1020.34 1020.17 1020.07 1019.77 1019.21 1018.64 1018.26 1017.92 1017.53 1017.49
1018.54 1018.83 1019.54 1019.47 1019.60 1019.77 1019.94 1020.07 1019.87 1019.88 1019.79 1019.65 1019.64 1019.89 1020.11 1020.15 1020.34 1020.42 1020.43 1020.69 1020.72 1020.61 1020.56 1020.52 1020.33 1019.94 1019.52 1018.88 1018.25 1017.89 1017.48 1017.15
1019.10 1019.15 1019.51 1019.79 1019.81 1020.01 1020.06 1020.21 1019.98 1020.14 1020.27 1020.30 1020.33 1020.41 1020.47 1020.54 1020.85 1020.88 1020.90 1021.09 1021.05 1021.05 1020.99 1020.91 1020.65 1020.47 1020.45 1019.66 1018.46 1017.85 1017.60 1017.37
1019.68 1019.86 1020.12 1020.28 1020.39 1020.36 1020.34 1020.29 1020.53 1020.82 1020.85 1021.07 1021.07 1021.07 1020.99 1021.01 1021.02 1021.14 1021.17 1021.16 1021.32 1021.23 1021.04 1021.07 1021.00 1020.86 1020.94 1020.99 1020.28 1019.45 1019.06 1018.03
1020.30 1020.40 1020.44 1020.51 1020.62 1020.91 1021.28 1021.54 1021.70 1021.67 1021.54 1021.42 1021.35 1021.11 1021.11 1021.18 1021.38 1021.44 1021.42 1021.37 1021.56 1021.48 1021.43 1021.47 1021.37 1021.52 1021.32 1021.45 1021.71 1021.74 1020.66 1018.90
1020.73 1020.83 1020.91 1020.92 1020.98 1021.10 1021.40 1021.76 1021.70 1021.64 1021.69 1021.76 1021.78 1021.53 1021.49 1021.54 1021.57 1021.68 1022.08 1022.17 1022.06 1021.93 1021.71 1021.65 1021.56 1021.62 1021.77 1021.56 1021.50 1021.46 1021.33 1021.15
1020.84 1020.98 1021.30 1021.46 1021.55 1021.73 1021.93 1022.19 1022.15 1022.13 1022.00 1022.09 1021.99 1021.92 1021.82 1022.01 1022.18 1022.43 1022.47 1022.36 1022.28 1022.07 1021.87 1021.77 1021.80 1021.68 1021.58 1021.88 1021.92 1021.65 1021.49 1021.61
1021.27 1021.39 1021.54 1021.51 1021.66 1021.90 1022.18 1022.29 1022.27 1022.30 1022.30 1022.39 1022.28 1022.13 1022.33 1022.57 1022.48 1022.56 1022.58 1022.56 1022.40 1022.21 1021.99 1021.73 1021.82 1021.63 1021.39 1021.73 1021.94 1021.84 1021.53 1021.54
1021.00 1021.24 1021.48 1021.70 1022.02 1022.15 1022.31 1022.41 1022.35 1022.30 1022.19 1022.02 1022.06 1022.19 1022.31 1022.26 1022.21 1022.47 1022.53 1022.55 1022.37 1022.32 1022.17 1021.88 1021.80 1021.61 1021.53 1021.43 1021.41 1021.47 1021.33 1021.32
Wind_Speed
7 7 9 12 12 11 10 10 10 9 9 9 8 9 9 9 8 9 9 8 6 5 2 2 4 6 8 9 11 11 6 3
10 8 7 7 7 11 10 10 10 9 9 9 8 9 9 10 9 7 8 8 6 5 3 4 5 6 9 12 12 13 7 1
8 9 7 7 6 8 11 12 11 9 9 10 8 4 6 8 8 9 7 6 6 6 6 6 6 6 10 12 11 4 6 3
9 9 9 8 7 7 6 6 5 5 5 6 4 6 7 7 6 10 9 6 6 8 8 8 6 4 4 7 3 5 4 3
8 7 6 6 5 3 3 3 3 3 6 7 6 3 2 2 3 3 3 5 4 5 5 4 5 4 4 3 5 4 3 3
8 8 6 4 3 4 4 4 4 4 4 5 4 3 2 3 3 4 4 4 5 5 3 5 5 7 5 5 6 4 3 2
10 9 8 4 4 3 3 3 4 5 4 5 4 3 2 2 2 1 2 2 2 1 2 3 4 5 4 5 6 6 6 3
11 10 9 8 4 5 3 3 3 3 4 5 5 4 2 2 0 2 3 2 2 2 3 5 5 5 6 7 7 6 7 6
14 12 10 10 10 7 4 4 3 4 4 6 7 5 4 3 1 3 3 3 4 4 5 4 4 5 6 6 6 7 6 8
11 9 6 1 3 4 5 4 2 1 3 5 6 5 3 3 2 2 3 3 3 3 3 5 5 5 4 5 5 5 7 9
11 6 7 7 8 1 4 5 2 1 2 4 6 6 5 4 0 3 5 4 5 4 4 2 4 5 6 6 5 5 6 6
10 10 8 3 3 5 5 4 4 3 4 4 4 3 3 4 3 4 4 4 4 4 4 4 3 5 8 9 6 5 5 5
9 13 7 6 4 4 2 2 2 2 2 4 3 5 6 5 3 4 5 4 4 5 4 5 6 5 6 8 5 6 7 5
8 10 9 7 4 2 3 2 2 3 4 5 7 7 7 7 6 5 6 5 7 5 5 4 2 4 4 7 6 6 4 6
8 8 8 7 7 5 5 4 4 5 5 4 4 7 6 7 7 6 6 5 4 4 4 6 3 3 7 3 5 4 9 5
7 5 6 5 6 5 4 2 2 2 2 3 5 7 7 7 7 6 5 4 6 5 5 3 4 3 2 5 2 2 6 9
4 7 5 3 3 4 2 2 1 2 3 6 6 6 7 6 8 10 8 5 4 5 4 5 4 2 2 3 3 3 1 3
4 6 7 8 8 8 7 6 5 4 3 3 3 3 4 7 8 5 4 4 5 3 4 4 2 1 3 3 3 3 3 3
5 7 6 6 8 8 6 5 5 4 4 2 3 2 3 4 4 5 4 4 5 5 3 4 4 3 1 3 3 3 2 2
5 4 4 6 6 6 6 6 3 3 2 0 1 2 3 4 5 4 3 4 5 5 3 2 3 3 4 2 3 4 3 3
Wind_Direction
122 130 132 127 124 115 115 114 113 115 116 113 118 113 111 114 126 126 125 123 129 119 83 0 335 326 316 309 307 317 330 332
157 151 148 146 136 137 135 135 136 144 140 141 148 132 146 155 159 148 151 166 157 159 192 239 277 305 308 308 312 321 316 343
165 157 163 150 148 156 153 156 159 174 167 174 162 164 188 186 186 175 188 184 186 205 227 257 270 291 289 285 303 305 306 325
162 156 171 159 169 170 158 176 176 185 179 190 192 191 197 196 168 181 210 210 224 246 249 248 264 249 264 268 260 279 290 307
136 132 124 150 162 175 151 184 199 189 206 189 185 167 166 163 150 207 230 235 239 246 255 250 241 236 226 213 245 257 268 322
141 131 114 98 96 142 146 179 181 178 178 127 103 69 108 106 159 223 232 250 233 257 250 248 247 266 262 259 262 264 281 299
155 142 147 165 114 121 101 102 141 153 143 132 115 99 89 67 22 0 300 295 266 258 273 305 303 291 266 252 256 249 252 246
158 154 159 155 143 135 160 138 155 103 138 142 132 116 140 89 329 322 315 327 301 309 299 290 276 275 272 259 248 239 234 235
170 165 162 162 156 163 154 171 150 130 175 151 144 138 145 123 34 349 318 316 321 320 309 297 285 273 262 257 255 251 238 230
165 154 97 36 150 178 121 126 117 189 171 171 157 146 130 69 54 321 291 306 291 286 285 286 278 271 267 269 266 258 244 237
58 90 90 83 262 304 102 137 165 242 118 91 102 94 108 130 147 326 338 327 325 319 326 328 306 307 301 283 275 274 268 264
68 71 71 41 40 44 28 30 14 37 109 104 101 114 125 72 23 357 1 355 342 350 346 329 310 297 308 303 293 282 275 270
67 67 53 47 38 66 31 44 358 50 95 128 62 59 47 36 12 5 347 353 324 337 336 347 334 325 319 315 300 288 287 277
68 61 50 40 27 22 60 357 345 46 25 39 41 32 21 22 25 13 12 2 357 357 348 315 288 346 313 310 314 310 298 309
67 72 65 51 45 28 12 17 26 15 10 35 21 41 38 42 38 32 14 19 357 333 324 0 325 356 16 5 337 319 336 289
44 90 110 86 74 61 57 74 18 325 353 5 27 29 34 35 32 21 12 6 13 13 36 36 46 25 355 28 93 318 326 313
18 23 60 82 100 114 97 54 339 343 8 21 23 23 30 29 19 25 38 40 32 45 21 27 34 33 14 348 333 314 21 327
76 47 38 51 47 32 40 40 17 31 2 30 20 17 25 32 59 55 43 35 24 30 42 62 43 56 30 5 336 314 311 300
61 61 41 47 53 68 59 38 30 22 16 37 17 338 62 63 74 49 32 15 7 1 359 17 357 357 13 332 286 266 234 243
88 78 50 60 75 53 35 26 19 6 24 268 350 41 115 91 72 64 42 359 341 323 317 334 348 326 324 321 266 275 298 291